Theta_e
315 318 319 321 324 325 325 326 320 320 320 312 313 314 316 322 323 323 324 322 325 330 332 331 330 329 333 336 347 350 348 353 351 347 350 355 348 348 351 351 351 349 349 346 348 348 346 345 346 347 347 347 346 345 341 337 334 335 336 336 337 334 325 324 331 334 335 337 339 341 340 339 340 342 342 341 342 343 344 344 344 344 344 343 342 342 342 343 343 343 343 343 342 341 340 340 340
321 325 324 323 323 323 325 326 319 316 315 309 312 315 317 324 323 322 323 324 330 332 331 331 333 331 333 334 343 350 351 351 352 354 352 351 350 351 353 352 350 349 349 347 347 347 347 347 347 347 347 346 345 344 340 336 335 336 337 337 337 331 325 327 332 334 335 337 340 340 339 341 341 342 341 341 343 344 344 344 344 344 344 343 342 342 343 343 343 343 343 342 341 340 340 339 340
321 327 323 321 321 322 323 324 318 311 310 307 311 318 321 323 322 323 323 325 328 328 328 328 331 331 330 331 338 348 350 347 347 348 346 351 354 353 352 352 350 349 348 346 346 347 347 347 347 347 346 346 344 342 338 337 337 337 337 338 336 330 327 329 333 334 335 337 339 340 340 342 342 341 341 342 343 344 344 344 345 344 344 344 343 343 343 343 343 343 342 342 341 340 340 339 339
319 324 322 322 322 322 322 319 318 312 309 307 308 319 323 322 323 323 324 324 324 325 326 327 331 332 334 337 339 343 344 344 348 348 348 352 354 353 353 351 350 349 347 345 346 347 347 346 346 345 345 344 343 341 339 338 338 338 338 338 335 329 329 331 333 334 335 337 339 340 340 341 341 340 341 342 343 344 344 344 344 344 344 344 344 344 344 344 344 343 342 342 341 341 340 338 337
315 320 321 321 322 323 322 319 318 312 310 310 310 318 323 322 323 323 323 322 323 325 325 329 333 332 337 341 341 343 341 343 349 352 353 354 354 353 352 351 350 348 345 346 346 346 346 345 345 345 344 343 342 341 340 340 339 339 338 337 333 329 331 331 332 333 334 337 339 339 340 340 341 340 341 342 343 344 344 344 343 343 343 343 343 343 344 344 344 343 343 342 341 339 335 333 332
313 319 321 319 321 322 321 318 316 312 315 318 315 319 322 322 323 323 323 323 323 325 325 330 333 334 340 341 341 343 343 342 346 353 355 355 355 353 352 351 349 347 346 347 346 346 345 344 344 344 343 343 343 342 342 341 340 339 337 336 332 331 333 330 332 332 334 338 338 339 340 340 341 340 342 342 342 343 343 343 343 342 342 342 342 342 343 343 343 343 343 341 338 334 330 329 329
316 319 320 318 318 319 318 315 313 314 318 322 320 321 322 322 323 322 322 322 323 325 325 329 332 336 340 340 342 346 348 348 349 354 355 355 355 354 352 351 348 347 347 347 347 346 343 342 343 342 342 343 342 342 342 342 341 339 337 334 333 336 335 332 333 332 335 338 338 339 339 340 341 340 342 342 342 342 342 343 342 342 341 340 340 341 342 342 342 341 339 336 332 330 330 330 329
318 318 320 320 318 317 315 313 314 316 318 321 322 322 322 322 322 322 322 322 323 325 324 329 332 335 339 340 343 348 350 352 353 353 354 355 355 354 352 350 348 347 348 348 347 346 341 340 341 340 340 341 341 340 341 341 341 338 334 332 333 336 334 335 336 333 335 337 338 338 339 340 341 341 342 342 342 342 342 342 342 341 338 336 335 336 338 339 340 337 333 330 329 330 330 330 329
317 318 318 320 320 318 315 313 315 317 319 320 321 322 322 322 322 321 322 322 322 325 324 327 331 334 340 341 343 349 350 352 352 352 354 354 354 353 352 350 348 348 349 349 347 345 340 338 339 339 338 339 339 339 340 340 339 334 331 332 334 334 333 336 337 335 335 337 338 338 338 339 341 342 342 342 342 342 342 342 342 340 336 331 331 332 332 334 334 331 329 329 330 330 330 330 328
316 317 318 320 320 315 311 313 316 319 320 320 321 322 322 321 321 321 321 321 323 325 325 326 327 332 341 341 342 347 350 351 351 352 353 353 355 353 352 350 349 349 349 348 346 344 341 337 337 337 336 336 338 339 339 338 335 331 330 334 335 335 335 337 337 336 336 337 338 338 338 338 340 341 342 341 341 341 341 341 341 339 335 330 331 331 331 331 330 330 330 332 331 330 330 329 324
316 317 317 317 315 311 309 311 315 320 321 320 322 321 321 321 320 321 321 322 323 323 325 327 326 335 342 342 342 346 350 350 351 352 353 353 354 353 352 349 350 350 350 348 345 342 339 338 336 334 335 336 337 338 338 336 333 330 330 333 335 336 337 336 337 336 336 337 338 338 338 338 338 339 341 341 340 340 340 340 339 339 334 330 331 330 330 330 330 331 332 334 332 331 330 327 321
316 317 318 313 312 312 313 312 314 320 321 321 320 320 321 321 321 321 321 321 322 323 328 328 328 338 342 343 343 344 349 351 352 353 353 354 353 352 351 350 350 351 349 347 345 341 339 340 338 336 336 336 337 337 336 335 332 332 331 332 335 337 336 335 336 335 335 336 337 337 337 337 338 339 339 340 340 339 339 338 337 337 333 330 331 331 330 329 330 331 332 332 331 330 329 324 319
315 318 319 314 314 315 315 314 316 320 320 320 319 320 321 320 321 320 320 322 322 325 331 329 329 340 342 342 342 344 349 352 353 353 353 353 352 352 350 350 350 350 348 346 344 341 341 341 340 340 338 336 336 334 334 334 333 334 333 334 337 337 337 336 336 335 335 335 334 335 336 337 337 338 338 339 339 339 338 337 337 336 331 329 332 332 331 330 330 331 331 331 329 329 326 321 319
316 317 318 317 318 317 315 313 316 317 316 320 320 321 321 320 321 320 321 321 322 326 330 330 334 342 343 343 342 347 351 352 353 353 353 352 352 352 350 350 349 349 347 345 344 342 342 342 341 341 339 338 336 334 334 335 335 335 335 336 337 337 338 338 337 336 337 337 334 333 335 336 336 337 337 338 338 338 338 337 336 335 330 329 331 332 332 331 331 330 330 330 328 326 323 317 318
316 317 318 317 317 316 316 314 317 315 315 321 320 321 321 320 322 320 322 322 323 327 329 332 337 342 344 342 343 348 350 352 353 352 352 352 352 351 350 350 349 347 345 345 343 343 342 341 342 341 340 340 338 338 337 336 336 337 337 336 336 338 339 339 338 337 337 337 335 333 334 335 335 335 336 336 336 337 337 336 336 334 330 329 330 331 333 332 331 331 330 330 326 322 319 315 318
316 317 317 316 315 314 316 317 318 314 317 321 320 321 320 321 323 321 323 325 329 330 328 334 338 341 342 341 343 349 351 352 353 353 353 352 352 351 350 349 345 343 344 344 344 344 343 342 342 341 341 340 340 340 338 337 336 337 338 337 337 337 339 339 339 338 337 336 334 333 333 333 332 330 330 332 333 335 336 336 336 333 331 330 329 330 332 333 332 331 330 329 325 319 314 315 321
317 318 317 315 314 314 316 319 318 315 319 321 321 321 320 323 323 322 327 331 333 332 330 335 340 345 348 346 348 352 353 353 354 354 353 353 353 351 351 348 342 342 344 344 344 344 343 343 342 342 341 341 341 341 338 336 336 337 338 338 337 337 338 339 339 338 337 336 334 333 333 335 334 329 331 331 329 332 335 336 336 333 331 330 329 330 332 333 332 330 330 328 323 316 314 320 328
317 318 316 315 316 315 317 320 319 319 321 320 321 321 322 325 323 325 331 333 332 331 333 337 341 348 351 351 352 353 353 354 355 354 354 353 353 351 350 346 341 342 344 344 344 344 344 343 343 342 342 342 342 342 339 336 334 337 338 337 337 335 336 337 337 336 336 337 335 334 335 340 339 334 336 335 330 330 330 333 336 334 331 330 329 329 331 333 332 331 330 328 324 316 315 325 332
317 318 315 315 318 318 319 321 320 320 321 320 321 322 325 326 324 327 332 333 331 330 335 337 342 347 349 352 352 352 353 354 355 354 354 353 352 351 348 344 343 343 343 344 343 344 345 343 342 343 343 343 343 342 341 337 335 337 337 337 338 336 335 334 334 335 337 338 337 337 338 341 341 339 339 336 335 335 329 328 333 333 332 330 329 329 331 333 332 331 330 330 331 326 321 325 332
316 317 315 316 318 320 320 320 320 321 321 320 321 322 326 328 326 327 328 332 330 331 335 336 342 345 345 349 350 351 352 354 354 353 353 351 352 351 347 344 346 345 342 343 342 342 344 342 343 343 343 343 342 342 341 339 337 339 339 338 339 338 336 335 335 335 337 338 338 339 340 341 341 340 340 337 337 338 334 329 328 331 332 330 329 328 330 332 332 331 330 332 336 336 332 329 330
317 317 316 318 319 319 320 320 320 320 320 320 320 320 324 329 327 324 326 331 331 331 334 334 339 342 342 345 348 351 352 353 353 352 352 351 351 351 348 344 344 344 341 342 342 342 343 343 344 343 343 343 342 342 340 338 338 340 341 340 339 339 337 337 337 335 336 337 338 339 340 342 341 340 339 338 339 338 336 333 326 326 331 330 329 328 329 332 332 331 330 333 336 337 337 336 332
316 316 317 318 319 319 319 319 320 320 320 319 320 319 323 329 326 325 328 331 332 332 332 334 337 340 341 344 347 350 351 352 352 352 351 350 350 349 348 344 342 341 340 343 343 343 344 344 344 344 343 343 342 341 339 338 339 340 341 340 339 339 338 339 338 337 338 338 338 339 341 342 341 340 339 338 339 337 337 335 328 324 328 331 330 330 334 333 333 333 331 332 336 337 338 338 335
317 317 317 317 318 319 319 319 319 320 319 319 320 318 322 326 323 324 329 330 333 334 332 335 337 339 341 343 347 349 350 351 352 352 350 349 348 348 346 343 340 339 341 343 343 344 343 344 344 343 342 343 342 341 341 340 340 340 340 341 340 340 340 340 340 339 339 339 338 339 341 342 341 340 340 339 338 337 337 336 332 328 328 331 330 332 337 335 335 337 333 332 334 338 338 336 334
316 316 318 318 318 319 318 319 319 319 319 319 320 319 320 321 320 323 327 329 333 334 333 335 336 338 342 345 347 348 349 350 352 350 348 348 347 347 345 342 340 340 342 342 343 344 343 344 344 344 343 342 342 342 342 340 340 340 340 340 341 340 341 340 340 340 339 340 339 340 340 341 342 340 340 340 337 337 337 336 334 333 331 332 331 332 336 335 336 338 336 334 335 337 337 335 334
316 316 317 318 318 318 318 318 319 318 318 319 318 318 318 320 321 321 325 328 331 334 333 335 336 337 342 346 347 348 348 350 351 349 348 347 346 346 344 343 342 342 341 341 343 344 344 345 344 344 343 342 342 342 343 341 340 340 340 340 341 340 341 341 341 340 339 339 340 340 340 341 342 341 340 339 338 336 336 336 335 334 333 333 332 332 335 335 336 338 337 336 335 337 337 334 333
315 316 316 317 318 318 318 318 319 318 318 319 318 318 318 319 321 321 325 326 329 332 332 335 335 338 343 346 346 348 349 350 350 349 348 347 346 346 345 344 343 342 342 342 343 343 344 344 344 344 342 342 342 342 342 342 341 341 340 340 340 339 339 340 340 340 340 340 340 340 340 341 341 340 339 339 339 337 336 336 335 335 334 334 333 331 333 335 336 337 337 336 336 336 336 333 333
316 317 316 316 317 317 317 317 318 318 318 319 318 318 318 319 321 323 325 326 328 329 331 334 334 339 344 345 345 346 348 350 350 349 349 347 347 346 346 346 344 342 342 342 343 343 344 343 344 343 342 342 341 341 341 340 340 341 340 341 340 339 339 340 339 339 339 340 339 340 340 339 340 340 339 340 339 338 337 336 336 335 334 334 333 331 332 334 335 336 337 337 337 336 335 334 333
317 317 317 316 316 317 317 317 317 318 318 318 318 318 319 319 319 322 324 324 326 327 332 335 337 341 343 345 345 345 347 349 348 349 349 348 347 346 347 348 346 344 343 343 344 343 343 344 344 344 342 341 340 340 340 339 340 341 341 340 340 339 340 340 340 339 339 339 338 339 339 339 340 340 339 340 338 338 338 336 336 335 334 334 333 331 332 333 334 335 336 337 337 336 335 334 333
316 317 316 316 315 315 316 316 316 318 318 318 318 316 317 318 318 321 322 323 324 326 334 338 341 342 342 344 345 345 347 347 346 347 348 348 347 348 348 348 347 345 344 344 344 343 344 344 344 343 342 341 340 339 340 340 340 341 341 340 340 340 341 341 341 340 339 338 338 339 339 339 339 340 340 338 338 338 338 337 337 335 334 334 333 332 332 333 333 334 336 337 337 337 335 334 333
316 317 316 316 315 314 316 317 316 318 318 319 318 312 314 318 318 321 322 322 323 324 335 341 342 342 342 343 344 345 346 345 347 347 347 347 347 348 347 347 347 345 344 344 344 344 343 343 341 340 341 341 340 339 340 341 340 341 341 341 341 341 342 342 341 340 339 338 338 338 338 338 339 340 340 339 339 339 338 337 337 336 335 334 334 333 332 332 332 333 335 336 337 337 336 334 333
316 315 315 316 312 311 316 317 316 318 318 319 317 310 313 318 319 322 322 323 324 324 332 339 341 341 342 344 344 345 346 346 348 347 347 347 347 348 347 347 347 346 346 345 345 345 343 341 340 341 342 341 341 340 340 341 341 343 343 342 342 342 342 341 341 340 339 338 337 337 336 337 339 339 340 340 340 340 339 337 336 336 336 335 335 334 334 333 332 333 334 335 336 336 336 335 334
315 313 311 313 311 312 317 317 317 318 317 319 317 311 314 318 320 323 323 323 324 328 333 336 338 340 341 343 344 345 346 347 348 347 347 347 347 347 346 347 347 347 346 346 346 346 345 344 342 343 344 342 343 342 340 341 342 343 343 342 341 341 342 341 340 339 339 339 338 338 335 335 337 338 339 339 339 340 339 338 337 337 336 336 336 335 335 334 332 333 334 334 335 336 336 335 334
315 312 309 311 310 311 315 316 317 317 318 319 316 313 316 318 321 323 324 323 322 331 336 335 336 339 338 340 342 344 344 344 345 346 346 346 347 345 344 346 347 347 346 346 346 345 346 346 343 344 344 343 344 343 341 342 343 343 342 341 340 340 342 341 340 337 338 338 337 337 336 336 336 336 338 339 338 339 339 338 338 337 336 336 336 336 335 335 333 332 334 333 333 334 335 336 334
312 312 310 311 311 311 312 314 317 318 317 318 317 316 318 319 320 321 322 323 321 330 338 335 336 337 336 337 340 342 343 343 342 343 343 344 344 341 340 344 346 346 345 345 346 345 346 345 344 344 344 344 344 343 343 342 342 343 342 341 340 341 341 341 340 338 338 338 337 337 336 337 337 337 339 340 340 340 339 339 338 336 336 336 335 336 335 335 334 333 333 334 333 334 334 334 334
311 311 310 310 312 311 311 313 316 317 317 318 316 316 320 322 319 319 320 321 320 324 336 339 338 338 338 339 339 340 340 341 340 338 338 340 342 340 341 344 345 345 345 345 345 346 346 345 344 343 343 344 343 343 342 341 342 342 341 341 340 340 341 341 340 339 339 338 338 336 335 337 338 340 341 341 340 340 339 339 338 336 335 336 336 336 336 336 335 335 334 333 333 334 333 331 332
314 314 311 310 310 311 314 316 316 318 317 318 317 315 322 325 322 321 320 322 323 324 334 338 338 340 340 340 339 338 338 337 337 336 336 338 340 341 342 344 345 345 345 345 345 345 345 345 345 344 343 342 341 342 341 341 341 341 341 340 339 340 340 340 339 339 340 339 338 336 336 338 339 340 340 340 340 339 339 339 338 336 335 336 337 337 336 335 335 335 335 334 334 334 332 332 332
317 316 313 311 310 311 315 317 317 318 317 316 317 318 324 327 324 325 324 324 326 326 332 335 337 340 338 339 339 338 337 336 336 336 337 339 340 342 343 343 343 344 344 344 344 344 344 343 344 344 342 340 340 340 341 341 341 341 340 339 340 339 339 339 339 339 339 338 337 337 337 338 338 338 338 339 339 339 339 338 337 337 336 336 336 337 336 335 335 334 335 334 334 334 333 333 333
316 315 313 311 311 312 316 319 317 318 317 315 318 321 326 329 328 330 331 331 333 334 337 339 339 340 339 339 337 335 336 336 337 338 337 338 339 341 341 341 342 342 342 342 342 342 342 342 342 341 340 340 339 340 340 340 341 340 340 340 340 340 339 338 338 338 337 337 337 337 338 337 337 337 337 338 338 339 338 337 336 336 336 336 336 336 336 335 335 335 335 334 334 334 334 334 333
316 316 313 310 312 314 316 319 318 318 317 314 319 324 327 331 330 333 336 336 338 339 339 339 340 341 340 340 338 337 337 337 338 337 336 335 335 336 336 338 339 339 339 339 339 339 340 339 339 339 339 339 339 339 338 339 340 340 340 340 341 342 341 339 338 338 338 338 337 337 338 337 337 337 337 337 338 337 337 337 335 335 336 337 336 336 336 336 335 335 334 333 334 334 333 334 334
316 315 312 310 313 314 311 316 319 318 317 316 322 327 328 332 331 333 335 335 336 336 336 336 337 338 338 338 337 337 337 337 336 334 334 333 333 333 333 335 335 336 337 337 337 338 338 338 338 338 338 338 339 338 338 338 339 340 339 340 341 341 341 339 339 338 338 338 337 337 337 337 337 336 336 337 337 337 336 337 336 335 336 337 337 336 337 336 336 335 334 333 334 334 332 334 334
316 316 315 312 314 314 312 316 319 317 317 317 321 323 326 330 332 335 334 333 333 332 334 334 334 335 334 334 334 334 334 334 333 332 332 332 331 332 332 333 333 334 334 335 335 336 336 337 337 338 338 338 338 338 338 338 339 339 339 340 341 341 340 339 338 337 338 338 337 338 338 337 337 336 336 336 337 338 337 337 337 336 335 336 336 336 336 336 336 335 334 333 333 334 333 333 333
314 317 318 315 316 316 316 317 316 312 312 314 320 323 325 329 331 335 334 333 333 331 332 333 332 332 331 332 331 331 331 330 331 331 331 331 331 330 330 331 331 332 332 333 333 334 334 334 335 337 337 338 338 338 338 338 339 339 339 340 340 340 340 339 338 338 339 338 338 338 338 338 338 337 337 337 338 338 338 337 337 337 336 335 335 336 335 335 336 335 335 333 333 333 333 333 333
312 316 318 319 318 316 315 315 313 309 309 314 320 323 323 325 328 333 333 334 334 331 332 331 330 330 329 330 330 329 329 329 330 329 329 330 329 329 329 329 329 330 330 331 331 332 332 333 333 334 336 336 336 337 338 337 338 339 338 339 338 338 339 339 339 339 339 338 338 338 338 339 338 338 338 338 338 338 338 337 337 337 337 336 335 335 335 335 335 335 335 335 333 333 333 333 333
312 317 318 318 317 315 315 315 312 311 312 316 316 318 318 319 325 332 333 335 335 332 332 331 329 329 328 328 328 328 328 328 328 328 328 328 328 328 328 328 328 328 328 328 329 329 330 331 332 332 333 334 334 334 336 337 337 337 338 338 338 338 338 338 338 339 339 339 339 338 339 339 339 338 338 339 338 337 337 337 337 337 337 336 335 335 335 335 335 335 335 335 333 333 333 333 333
314 318 318 317 316 316 316 315 312 313 313 311 313 315 315 316 323 331 332 333 335 333 331 330 328 327 327 327 327 327 327 327 327 326 326 327 327 327 326 326 327 326 326 327 327 327 327 328 329 329 330 331 331 332 333 335 336 337 337 337 337 338 337 337 337 338 338 338 338 337 337 337 338 337 337 338 337 337 336 335 336 337 337 336 335 335 335 334 335 335 335 334 333 332 333 333 332
316 318 317 316 316 316 316 315 312 313 314 310 311 313 312 316 325 330 330 330 333 334 330 328 328 326 326 326 326 327 326 326 325 325 325 325 325 325 325 325 325 325 325 325 325 325 325 326 327 328 328 328 329 329 331 332 333 335 336 336 336 336 336 336 336 336 336 336 336 336 335 335 336 335 335 336 337 337 336 335 334 335 336 336 335 335 335 334 334 334 334 335 334 333 333 333 332
316 317 316 314 315 316 315 315 312 312 314 312 311 314 313 317 327 330 330 330 332 333 330 328 327 326 326 326 325 326 325 325 324 323 324 324 324 324 324 323 323 324 323 324 324 324 324 324 325 326 325 326 326 327 329 330 331 332 333 334 334 335 335 335 335 335 335 335 335 335 335 335 335 334 334 335 336 336 336 334 333 333 335 335 334 335 334 334 334 334 334 335 335 334 333 332 332
317 316 314 312 312 312 312 312 312 314 314 311 311 315 312 316 328 332 330 330 332 331 330 328 326 325 325 325 324 324 324 323 323 322 322 323 323 323 323 322 322 322 322 323 323 323 323 323 323 324 324 324 325 325 326 328 329 329 329 331 332 333 333 334 334 335 335 334 334 334 334 335 335 334 333 333 334 334 335 334 333 332 334 334 335 334 334 333 333 333 334 334 334 335 334 333 333
316 313 312 311 309 311 311 310 311 313 312 311 313 314 314 320 330 333 332 331 330 329 328 327 326 325 325 324 324 323 322 322 321 321 321 321 322 322 321 321 321 321 321 321 322 322 322 322 323 323 323 323 324 324 325 326 326 326 327 328 328 328 329 330 332 333 334 334 334 334 334 334 335 334 334 333 333 333 334 334 334 333 333 334 334 334 334 333 332 333 334 334 334 335 334 334 334
313 311 310 310 310 312 313 311 311 311 310 312 311 312 321 332 335 334 333 331 329 328 326 326 325 324 324 323 322 322 321 320 320 320 319 320 320 320 320 320 319 320 320 320 321 321 321 321 322 322 322 322 322 323 324 324 324 325 325 325 324 325 325 327 329 330 331 332 333 334 334 334 334 334 334 333 332 333 333 334 334 334 334 334 334 334 334 333 333 332 334 334 334 334 334 334 334
313 313 312 311 310 312 312 310 309 310 309 309 310 316 327 337 336 331 331 328 327 326 324 324 324 323 323 322 321 321 320 319 319 318 318 319 319 319 319 318 318 319 319 319 319 319 320 320 320 321 321 321 321 322 322 322 322 323 323 322 322 323 324 325 326 327 328 329 330 331 333 333 332 333 334 334 332 332 333 333 333 333 333 333 334 334 334 334 333 333 333 334 334 335 334 334 334
314 315 312 311 312 312 311 311 311 312 311 310 318 329 333 334 332 328 327 326 325 325 324 323 323 322 322 321 320 320 319 318 318 317 317 318 318 318 318 317 317 318 318 318 319 319 319 319 319 320 320 320 320 320 321 321 321 321 321 321 321 321 322 323 324 325 325 326 326 328 330 331 332 332 333 333 333 332 332 332 333 333 333 332 333 333 333 334 334 334 334 334 334 334 334 334 334
313 312 311 312 316 315 312 313 313 314 314 315 327 337 335 334 333 329 326 326 325 324 324 323 322 322 321 320 320 318 318 317 316 316 316 317 317 317 317 317 317 317 317 318 318 318 318 318 319 319 319 319 319 319 320 320 320 320 320 321 320 320 321 321 322 323 323 323 324 325 326 328 329 330 332 333 333 332 332 332 332 332 332 332 333 332 332 333 334 334 334 334 334 334 333 333 333
312 310 311 313 317 316 313 314 314 314 314 317 331 339 335 334 336 332 328 327 326 325 324 323 322 321 320 319 319 317 317 316 316 316 316 316 316 316 317 317 317 317 317 317 318 318 318 318 319 319 318 318 318 319 319 319 319 319 319 320 319 319 320 320 320 321 321 322 323 323 324 324 325 327 329 331 332 332 332 332 332 331 332 332 332 332 331 331 333 333 333 333 333 333 332 332 332
314 313 314 315 313 312 312 313 314 315 314 318 332 337 334 333 335 333 330 328 327 325 324 323 322 321 320 319 318 317 316 315 315 315 315 316 316 316 317 317 317 317 317 317 317 317 317 318 318 318 318 317 317 318 318 318 318 318 318 319 319 319 319 319 319 319 319 320 321 321 321 322 323 324 326 328 330 331 331 331 331 331 331 331 331 331 331 331 332 331 331 332 332 332 331 332 332
315 315 314 315 313 311 312 312 312 314 312 318 332 336 332 332 332 331 329 327 326 325 324 323 321 320 319 318 317 316 315 315 315 314 315 315 315 316 317 317 316 316 316 317 317 317 317 317 317 317 317 317 317 317 317 317 317 317 318 318 318 318 318 318 318 318 319 319 319 320 320 321 322 323 324 326 328 329 329 330 330 329 330 330 330 329 330 331 331 331 332 332 333 333 332 332 332
313 313 312 312 313 312 313 312 310 312 311 316 329 335 334 331 330 329 329 327 325 324 323 322 320 319 318 317 316 315 315 314 314 314 314 315 316 316 316 316 316 316 316 316 316 316 316 315 316 316 316 316 316 316 316 316 316 317 317 317 317 317 317 317 317 317 317 318 318 318 319 320 321 321 322 324 325 326 328 329 330 329 329 329 329 329 329 330 331 331 332 333 333 333 333 332 332
313 312 311 312 312 310 312 313 310 310 311 312 320 333 335 329 327 330 328 325 324 323 321 321 319 318 317 316 315 314 314 314 314 314 314 315 316 316 315 315 315 315 315 315 315 315 314 314 315 315 315 315 315 315 316 316 316 316 316 316 316 316 316 316 316 316 316 316 317 317 318 318 319 319 320 321 323 324 325 327 328 329 330 329 329 328 328 330 330 329 330 332 333 333 332 331 331
Wind_Speed
2 5 7 9 10 11 10 6 4 4 5 7 8 8 10 14 14 13 4 2 1 5 6 4 2 3 3 5 15 18 14 12 8 5 5 6 10 13 18 25 24 23 24 20 17 16 15 18 19 20 20 19 19 20 21 22 21 19 17 15 12 12 15 15 15 15 15 17 16 15 15 16 17 15 13 13 13 14 14 14 14 15 15 15 16 16 16 15 14 14 15 15 14 14 14 15 15
4 9 10 11 11 9 5 4 5 5 6 8 9 9 12 15 11 11 11 3 5 8 3 5 4 2 1 1 14 19 15 15 13 10 9 14 13 15 22 22 22 23 21 19 19 16 15 18 20 20 20 20 20 20 21 22 21 19 16 13 12 13 15 15 15 16 16 17 15 14 14 15 15 14 13 13 13 14 14 14 15 15 14 15 16 16 16 15 14 14 15 15 14 14 14 14 14
8 11 12 11 9 7 5 4 6 6 8 8 8 10 13 13 7 6 3 6 9 7 3 4 2 2 2 4 10 15 12 12 15 11 10 17 14 15 22 21 21 21 20 19 19 17 15 18 21 20 20 20 21 21 22 21 19 17 15 13 12 13 15 15 16 16 16 16 15 14 14 14 13 13 13 13 14 15 15 15 15 15 15 15 15 15 15 14 14 14 14 14 14 14 13 14 14
8 9 11 9 6 6 5 5 6 7 8 8 7 12 14 9 6 7 10 9 6 5 2 3 3 1 5 4 10 12 11 12 15 11 8 15 16 18 22 20 19 19 19 18 19 17 15 19 21 20 21 21 21 21 21 20 18 16 14 13 12 14 15 15 16 16 16 17 16 15 14 13 13 12 12 14 15 15 15 15 15 16 15 14 14 14 14 13 14 13 13 14 13 13 13 13 13
9 10 11 9 5 4 5 5 6 8 8 8 7 10 8 4 8 10 9 4 3 2 3 3 4 5 6 9 8 7 9 10 14 14 13 17 20 21 19 18 17 17 18 19 21 16 15 20 20 20 21 21 21 20 19 18 16 15 13 13 13 15 15 15 16 15 16 17 16 15 14 13 13 12 11 13 14 14 15 15 15 16 15 15 13 13 12 12 12 13 13 13 13 12 12 13 13
10 12 11 9 6 4 5 6 7 9 10 10 8 9 5 6 6 6 5 3 2 2 4 4 3 7 9 10 10 9 8 7 10 15 17 19 19 21 19 17 16 17 19 20 20 16 17 20 19 20 20 19 19 18 17 16 15 14 14 13 14 15 14 15 16 15 17 18 16 15 14 13 13 12 11 12 13 13 14 15 15 14 15 14 13 12 11 11 11 12 12 11 11 11 12 13 12
11 9 7 7 5 5 6 7 9 8 10 13 11 13 7 5 6 1 2 3 4 3 4 4 4 9 9 9 11 14 17 14 12 16 20 19 18 19 19 16 16 18 20 21 19 18 19 20 19 20 19 18 17 17 16 15 15 14 14 13 14 14 14 15 15 16 18 18 15 14 14 13 12 13 12 12 12 13 13 14 13 13 13 12 12 11 10 10 11 10 10 10 10 11 12 11 11
13 8 4 6 5 5 7 8 10 8 11 14 12 10 2 8 4 2 4 2 3 6 6 4 5 7 11 13 10 14 22 20 18 20 20 19 18 17 17 16 19 20 20 20 19 19 19 20 19 19 18 17 17 16 15 15 15 14 13 14 14 14 14 15 15 16 18 17 15 13 13 13 12 12 12 11 12 12 12 12 11 10 10 10 11 11 10 9 9 9 10 10 10 11 11 10 9
11 8 4 6 6 6 8 8 9 11 13 14 12 7 2 5 0 3 3 2 3 6 9 6 7 6 13 16 12 12 17 18 19 20 18 18 17 15 16 17 18 20 19 19 19 19 19 20 18 18 17 16 16 16 15 15 14 13 13 13 13 14 15 15 15 15 15 15 14 12 12 13 13 12 12 11 11 11 11 10 9 9 9 9 10 10 9 9 8 9 9 10 10 10 10 9 8
7 7 5 5 6 7 8 8 9 10 12 15 10 3 2 4 4 5 6 6 4 4 10 10 9 8 14 14 10 10 14 17 18 18 17 16 16 15 15 16 18 20 19 19 20 19 19 19 18 17 16 16 16 16 16 14 13 13 13 13 13 14 14 14 15 15 14 14 13 11 12 13 13 14 13 12 11 11 10 9 8 8 8 8 8 8 8 8 8 8 8 8 9 9 9 9 9
5 5 5 5 6 7 8 8 9 10 12 13 5 3 1 2 5 5 7 9 7 7 8 8 7 12 15 12 8 12 17 17 17 17 16 15 15 15 15 16 19 22 21 20 21 20 20 18 18 17 16 16 16 16 15 13 12 13 13 14 14 15 14 14 15 15 14 14 13 12 13 13 13 14 14 13 11 10 9 7 7 7 8 8 8 8 8 8 8 8 7 7 8 8 8 8 10
6 6 6 6 7 7 8 9 9 11 10 7 3 3 3 4 4 4 8 8 8 9 8 6 7 16 15 10 7 12 18 15 17 16 15 15 14 14 15 17 20 23 22 20 21 22 20 18 17 16 16 17 17 16 14 13 12 13 14 15 15 15 15 15 14 14 14 13 13 13 13 12 12 13 13 13 11 10 8 6 6 6 8 8 8 8 7 8 8 7 7 7 7 7 7 8 12
6 6 6 7 7 8 9 10 9 9 4 4 3 4 5 4 6 7 10 7 7 9 11 6 4 16 12 9 8 9 15 16 17 15 14 14 13 14 15 17 19 22 23 22 22 22 21 19 18 16 16 17 16 15 14 13 13 13 14 15 15 14 14 14 14 14 13 11 11 12 13 13 11 11 11 11 10 9 7 6 5 7 9 8 8 7 7 7 7 7 7 7 7 7 7 9 13
7 6 6 6 7 9 9 10 8 6 5 3 5 9 6 5 7 9 9 8 9 8 11 6 6 17 11 9 8 7 13 16 17 15 14 14 13 14 15 18 21 21 22 22 21 22 21 19 19 17 16 15 14 14 13 12 12 13 14 15 15 14 14 13 13 12 11 10 9 11 12 12 11 10 9 10 9 9 7 6 6 8 10 8 7 7 6 6 6 6 7 7 7 7 7 9 14
8 5 6 7 6 9 8 10 7 7 6 5 10 9 6 5 4 8 9 9 8 3 8 8 10 11 10 10 8 9 15 18 17 14 14 14 13 14 15 18 22 20 19 22 21 20 19 18 19 17 15 13 12 11 11 11 11 13 13 13 14 13 14 13 12 11 10 9 9 9 10 10 8 8 8 8 8 9 8 6 7 9 10 8 6 6 5 5 5 6 6 7 7 7 8 10 14
7 6 6 6 7 9 8 8 8 9 2 9 9 8 7 5 4 8 4 3 6 8 6 8 12 9 8 10 12 17 21 20 17 15 15 14 13 14 15 17 22 18 18 24 20 18 20 18 18 16 15 13 12 10 9 10 10 12 12 12 12 12 13 13 12 11 10 9 9 9 10 9 7 5 5 6 7 8 8 7 7 10 11 8 6 6 5 4 4 5 6 7 7 7 9 13 18
6 6 6 6 8 9 8 8 7 5 5 7 6 9 7 8 8 8 1 3 7 9 6 9 13 13 14 15 21 24 22 19 18 15 14 14 13 13 13 18 21 15 18 21 17 20 21 17 17 16 14 13 13 11 10 10 10 10 9 10 10 11 12 12 11 11 9 9 8 9 9 8 5 4 4 3 5 8 9 8 8 10 12 9 7 6 5 4 4 5 5 7 8 8 11 18 20
6 5 6 7 7 9 10 7 2 2 7 4 2 7 7 8 9 4 2 4 7 9 8 13 15 16 18 21 24 23 20 18 16 14 14 13 12 10 11 17 18 15 16 15 16 20 19 16 18 16 14 14 14 12 10 10 10 8 7 8 9 9 11 11 10 10 9 8 7 9 9 7 5 4 4 3 3 7 10 9 9 10 12 10 8 6 5 4 5 5 6 7 9 10 14 18 18
7 6 7 7 9 11 7 3 7 6 6 4 3 4 3 7 10 6 6 8 9 9 9 14 17 18 17 20 21 19 18 16 14 13 13 11 10 9 10 16 16 16 15 13 15 17 16 18 20 17 16 16 15 13 11 10 9 9 9 9 9 8 10 10 10 9 9 8 7 9 9 9 8 6 5 3 3 5 7 9 9 11 12 10 8 6 5 4 5 7 6 7 9 11 14 16 16
8 7 7 9 11 12 2 8 8 8 5 4 4 4 1 5 6 7 10 9 8 8 10 13 16 18 16 16 17 17 16 14 13 11 10 9 9 8 10 14 13 14 15 14 15 16 17 20 20 18 18 18 16 14 13 13 11 12 13 11 11 11 12 12 12 12 13 12 11 12 11 10 10 9 8 5 6 7 5 8 9 10 12 11 9 6 5 5 5 8 8 7 8 8 11 10 7
7 8 9 11 6 10 2 6 3 5 4 4 4 5 4 4 3 7 11 9 8 8 10 13 16 18 16 16 14 15 14 11 11 10 8 8 10 8 10 14 14 16 17 16 17 16 19 20 19 19 18 18 18 17 18 17 16 17 17 15 15 15 15 14 13 15 17 16 15 14 12 11 9 11 12 11 10 8 5 6 8 11 13 12 10 7 6 6 6 9 9 8 7 7 8 10 7
8 9 14 15 8 10 3 3 3 4 1 2 2 5 6 5 2 6 8 5 2 1 8 14 19 17 15 15 13 13 12 10 9 8 7 7 9 10 13 16 19 19 16 18 19 18 19 19 19 18 18 18 17 19 20 18 17 18 19 18 18 17 17 15 16 17 17 17 17 16 13 11 9 12 15 15 14 10 7 6 6 12 14 12 11 8 6 7 7 9 11 10 7 6 8 11 10
8 8 13 15 10 9 5 3 4 5 4 6 2 2 3 5 6 8 6 6 10 12 11 17 19 17 17 16 12 11 10 9 7 7 7 7 8 9 16 20 20 18 15 17 17 16 18 17 17 18 18 18 17 18 19 18 18 20 20 20 20 20 19 18 18 18 16 16 16 16 15 12 11 14 16 16 15 13 11 9 6 10 13 13 11 9 8 9 8 9 11 10 7 8 10 9 9
10 9 11 12 8 8 5 1 5 3 10 7 2 2 3 9 7 10 7 9 15 18 18 19 19 17 18 16 11 9 9 9 7 7 7 9 10 13 21 22 19 16 14 13 13 15 18 18 18 18 18 18 17 17 18 19 20 20 19 20 21 21 20 19 18 17 16 14 15 16 16 14 13 14 14 15 16 15 14 13 10 10 11 11 12 13 12 11 10 11 11 11 10 10 9 9 8
12 11 12 10 8 9 6 1 2 6 10 4 2 4 9 9 4 11 8 8 11 15 18 19 18 16 16 16 13 8 8 9 8 8 9 11 12 14 22 23 18 15 13 11 10 12 16 18 17 17 18 17 17 16 15 17 18 18 17 18 18 19 20 19 18 16 14 13 14 16 16 15 14 14 14 15 17 16 16 15 14 12 11 10 12 13 13 13 12 13 12 12 12 11 10 10 9
11 13 13 10 7 9 9 5 3 7 7 6 7 8 10 6 3 9 9 8 8 12 16 19 19 17 16 15 12 7 6 8 8 9 11 12 11 13 19 19 17 15 14 13 11 12 14 16 17 16 16 16 15 16 15 15 17 17 16 16 16 17 18 19 18 16 14 14 15 16 16 15 15 16 15 15 16 16 16 16 16 16 14 12 11 12 13 14 14 14 14 13 13 13 12 11 10
8 12 14 13 8 7 9 7 8 8 8 10 10 10 9 7 6 8 10 9 7 8 12 18 18 17 17 13 10 6 4 6 9 11 11 11 10 11 15 15 16 16 15 15 13 15 16 16 17 15 15 16 15 15 15 15 16 15 14 14 15 16 17 17 17 16 16 15 15 17 18 17 16 16 15 14 14 16 16 16 17 17 17 16 15 14 13 14 15 15 14 14 14 13 12 12 10
6 7 11 14 11 9 10 10 11 9 9 11 11 12 9 8 10 9 12 13 9 9 11 20 19 17 17 14 11 7 5 7 9 10 8 9 9 9 11 12 14 13 13 14 13 15 17 17 16 14 14 16 15 14 15 15 14 14 13 12 13 13 13 14 13 14 16 15 16 18 18 17 16 15 15 13 13 15 15 15 17 17 17 16 16 17 13 13 15 15 14 14 14 14 13 12 11
8 8 9 12 12 11 11 10 12 11 9 11 11 12 10 10 13 7 12 14 12 11 16 23 19 18 16 13 11 8 8 8 7 8 7 8 9 8 9 10 11 10 10 11 11 12 12 13 13 13 12 13 13 13 14 15 14 13 12 11 11 11 11 11 12 13 13 13 15 17 16 15 15 15 15 13 12 13 14 14 15 16 16 15 15 17 15 13 14 15 15 15 14 15 15 14 12
11 10 7 8 10 11 11 10 13 13 10 11 11 10 8 12 14 6 10 10 11 11 17 21 18 16 15 13 13 9 9 9 7 8 8 7 8 8 8 8 8 8 8 9 10 9 9 10 13 12 11 12 12 12 14 15 14 12 10 10 11 11 12 12 14 15 14 14 17 20 18 16 16 16 15 13 11 11 12 13 13 14 15 15 15 15 15 15 14 13 16 17 15 14 13 13 13
10 10 7 7 7 8 13 12 13 13 10 14 13 7 7 13 14 13 9 10 9 8 14 19 17 15 13 13 13 11 9 9 10 9 8 8 7 7 8 7 7 7 7 8 8 9 8 9 11 10 8 11 11 11 14 14 12 11 9 10 11 12 13 13 14 15 15 15 18 21 20 17 17 16 14 13 12 11 12 12 12 13 14 15 17 16 15 18 18 13 14 18 17 15 13 13 14
8 9 7 8 8 8 15 16 14 13 11 15 14 7 8 14 15 15 11 10 10 7 15 18 17 15 13 13 11 10 10 10 11 10 8 6 6 7 7 6 6 6 6 7 8 8 8 8 8 7 6 8 9 9 11 11 10 10 9 9 9 10 12 13 14 14 13 11 11 14 13 11 13 13 12 11 11 11 10 10 12 13 14 15 16 18 18 19 20 15 12 16 20 18 14 14 17
8 9 7 9 10 9 11 16 16 16 13 13 14 10 6 11 15 14 11 10 10 10 20 18 16 16 13 12 11 9 9 9 9 8 7 5 5 7 7 6 5 6 6 7 8 7 8 7 6 6 5 7 7 7 9 9 9 9 9 8 8 9 11 11 12 11 9 8 5 3 2 2 7 10 11 12 11 12 11 11 12 13 15 16 16 18 20 20 21 19 15 15 19 20 17 16 19
8 8 8 10 11 11 9 15 16 18 15 12 15 13 0 9 13 13 12 11 9 9 19 18 14 14 12 11 11 9 9 8 7 7 7 6 7 7 6 6 5 5 5 6 7 7 7 7 6 6 6 5 5 4 5 7 7 8 9 8 8 9 10 10 10 9 6 7 10 11 6 2 4 8 11 13 12 12 13 13 14 16 16 17 17 18 20 21 22 23 21 18 16 17 17 16 17
9 9 8 9 11 13 11 13 15 19 17 12 15 14 4 9 10 10 12 12 11 10 15 18 14 13 13 12 10 9 9 9 9 11 10 8 8 7 5 5 5 5 5 6 7 6 7 7 7 7 6 4 3 3 2 3 5 7 8 8 9 9 10 10 9 8 7 8 7 6 5 6 5 7 10 11 12 11 12 13 14 17 18 18 18 17 19 21 22 23 23 21 18 16 16 15 17
13 11 11 10 10 13 13 13 17 19 16 13 14 13 10 9 8 8 8 8 8 8 12 14 13 13 13 12 10 9 9 9 10 9 6 5 5 5 4 5 5 6 7 6 7 7 7 7 8 8 7 6 4 3 2 2 3 6 7 8 9 7 8 10 9 7 6 8 8 4 4 7 8 10 11 12 13 12 13 14 13 15 17 18 19 18 19 21 22 23 22 21 19 17 18 18 16
13 12 11 13 12 11 12 14 18 18 13 12 14 11 12 10 8 7 4 3 2 5 9 10 12 13 11 11 11 9 10 9 8 7 6 6 6 5 7 8 8 11 12 11 10 10 10 10 10 10 8 7 6 4 2 1 3 5 6 6 6 4 6 9 9 8 7 6 5 4 5 8 11 13 14 13 14 13 13 14 14 14 16 18 20 20 20 21 21 23 23 21 19 18 20 20 16
14 11 10 12 12 10 12 15 19 18 12 12 14 12 14 10 8 7 6 7 8 8 9 12 16 15 12 11 11 10 10 7 6 8 12 13 13 12 12 12 12 13 14 15 15 14 15 14 13 11 8 7 7 5 3 3 4 4 5 5 5 5 6 8 9 8 8 6 6 7 8 9 11 13 14 13 13 14 14 15 15 16 18 19 20 20 21 20 20 22 23 21 19 19 20 19 18
14 10 8 9 10 9 11 15 19 17 10 11 14 13 12 11 10 9 9 9 12 15 14 14 15 15 12 10 10 11 10 7 7 9 12 15 17 17 16 16 15 14 15 17 17 15 15 14 13 11 9 7 7 5 4 5 5 5 4 4 4 3 5 8 9 9 8 8 9 9 9 10 12 14 14 14 14 15 15 15 17 17 19 19 19 19 20 19 20 20 20 21 20 19 20 20 20
11 10 7 9 10 10 9 12 17 16 10 11 15 14 10 11 10 8 9 10 12 14 14 13 13 14 13 11 11 11 11 9 9 10 10 13 15 16 16 15 15 16 17 18 18 16 15 14 12 10 9 7 7 6 5 5 5 5 4 4 3 2 4 6 8 8 9 10 10 10 10 12 14 15 16 16 15 15 15 15 17 18 19 20 20 20 20 20 21 22 20 21 21 18 18 22 22
11 12 9 9 12 14 11 8 12 13 12 15 12 12 8 10 10 8 8 9 11 11 10 11 11 11 12 12 12 11 11 9 10 10 9 11 13 14 15 15 16 17 17 17 17 17 16 16 14 11 10 9 8 7 7 6 6 6 5 4 3 3 4 5 7 8 8 10 11 10 10 11 13 15 16 16 16 16 16 16 18 20 20 21 23 23 23 21 22 23 23 23 23 22 20 21 21
10 13 14 14 12 16 13 12 12 9 10 16 11 9 7 10 11 10 9 9 11 9 9 10 8 9 9 10 11 10 10 9 9 10 10 11 12 13 14 15 15 15 15 15 15 16 16 16 16 15 13 12 10 10 9 8 8 8 6 5 5 4 4 5 8 8 8 10 11 10 11 11 12 13 14 15 16 17 19 19 19 21 21 21 23 24 25 24 23 23 23 24 25 26 23 19 18
7 11 16 18 13 15 13 16 12 8 8 12 11 7 6 9 11 12 12 10 12 9 8 9 7 7 7 8 9 8 9 9 9 10 11 12 12 13 14 14 14 14 14 15 15 15 15 15 16 15 14 13 13 13 12 10 10 9 8 7 7 7 6 6 7 8 9 11 12 11 12 12 13 13 14 15 17 18 19 19 21 21 21 22 23 24 26 26 25 23 22 24 26 26 24 20 20
7 11 16 17 15 16 13 17 11 8 8 10 12 10 7 8 12 16 16 13 13 10 8 8 6 7 8 8 9 8 9 8 8 10 10 12 13 13 13 13 14 14 14 14 15 15 15 15 16 15 14 14 14 14 14 13 11 11 10 9 9 9 8 8 8 9 10 10 11 12 11 12 13 13 15 16 17 19 18 19 22 21 21 23 23 24 26 26 26 24 22 23 25 24 25 24 22
10 12 14 15 16 17 13 14 11 8 8 10 13 13 8 6 10 16 16 13 13 12 9 8 8 8 9 8 9 9 9 9 9 9 10 12 13 13 13 14 14 14 14 14 14 15 16 16 16 16 16 15 15 15 15 14 13 12 11 11 11 11 11 11 11 12 12 12 12 12 12 13 14 14 15 16 16 18 19 19 22 22 21 22 24 25 25 26 26 26 24 24 24 23 25 26 23
12 14 12 13 15 13 12 10 11 9 8 9 12 13 9 5 9 13 13 12 12 12 10 9 9 9 8 8 8 8 8 9 9 9 11 12 12 13 14 14 14 14 14 14 14 15 16 17 16 17 17 16 16 15 15 16 15 15 14 14 14 13 13 13 14 14 14 15 14 14 14 14 15 15 15 16 15 16 18 19 20 22 21 22 24 25 25 26 27 27 26 25 25 24 25 25 24
14 15 11 12 12 9 10 8 8 7 7 11 15 16 12 7 8 10 10 11 14 14 11 10 10 10 9 8 8 8 7 8 9 9 10 12 12 13 14 14 13 13 14 14 14 14 14 15 15 15 16 15 15 15 16 16 16 16 16 16 16 16 16 15 15 15 15 16 16 15 15 15 15 15 15 16 16 16 17 17 18 19 19 21 23 24 25 26 27 28 28 27 25 25 26 25 23
14 13 10 10 8 7 8 6 7 6 7 12 16 16 15 9 5 8 8 11 15 15 13 13 13 11 10 9 8 8 8 8 8 8 8 10 11 12 12 13 13 13 13 14 13 13 12 14 14 13 14 14 14 15 16 17 17 17 17 18 18 17 17 17 16 16 17 18 17 17 16 15 15 17 17 17 16 15 15 14 16 17 18 19 21 22 24 26 26 28 29 28 25 25 27 26 24
13 11 9 9 8 7 7 7 8 7 8 13 16 15 10 3 2 6 10 13 14 14 13 14 14 12 11 10 9 8 7 8 8 7 7 8 9 11 11 12 12 12 13 13 13 12 12 14 14 14 14 14 14 14 14 15 16 17 18 18 19 19 19 18 17 17 18 20 19 17 17 16 16 17 18 18 17 15 13 12 14 16 16 17 19 19 21 23 25 26 28 28 26 25 26 27 27
13 12 9 9 9 7 7 7 8 8 9 13 17 14 7 4 4 5 11 15 14 14 13 13 13 12 11 10 9 8 8 9 8 7 7 7 8 9 10 11 11 11 12 12 13 13 13 14 14 14 13 13 13 13 13 14 15 15 16 18 19 19 19 19 18 18 19 21 21 19 18 18 18 18 17 18 18 16 15 14 14 15 15 15 17 18 19 21 22 24 26 25 25 26 26 27 28
12 12 10 9 9 7 7 7 7 7 9 11 12 7 4 5 4 7 12 14 14 13 13 13 12 11 10 9 9 9 9 8 8 7 7 8 9 9 10 11 11 11 12 12 13 13 12 13 14 14 13 13 12 10 11 12 13 13 15 16 17 18 17 17 17 18 19 21 22 21 20 20 20 20 17 17 19 18 17 17 16 16 16 15 16 18 20 21 20 22 25 24 23 24 25 26 28
10 11 11 10 10 9 5 6 6 3 4 8 5 1 4 5 7 11 14 13 14 13 13 14 13 11 10 9 9 8 8 8 7 7 7 8 9 9 10 10 10 11 11 11 12 12 13 13 13 14 14 15 15 12 12 14 13 13 13 13 16 17 16 17 17 18 20 21 21 22 23 23 21 21 19 18 18 18 18 19 18 18 18 17 17 18 20 21 19 20 23 23 23 23 23 25 28
8 10 12 10 12 11 4 5 5 1 3 4 5 6 5 6 6 9 13 14 13 13 13 13 13 12 11 9 8 8 8 7 6 6 6 8 9 9 10 9 10 10 10 11 12 12 13 12 11 13 14 16 17 15 15 16 16 16 16 14 17 18 17 17 18 19 20 20 20 21 23 24 23 22 21 19 19 20 20 19 19 18 19 19 18 18 19 20 21 22 24 23 24 24 23 25 28
8 9 11 9 11 11 4 3 5 4 5 3 8 10 9 7 4 7 13 14 13 13 13 13 12 12 11 9 8 8 8 7 7 7 7 8 8 9 9 9 10 10 10 11 12 12 12 10 12 15 15 16 17 15 15 16 16 18 20 19 19 19 18 18 19 20 21 20 20 20 22 23 24 23 23 21 21 21 20 20 22 21 20 20 19 19 20 20 21 24 25 25 25 24 23 26 27
14 9 9 7 7 8 5 3 5 6 6 3 7 11 10 6 6 11 14 14 14 13 12 12 11 11 11 10 9 9 8 6 7 6 6 7 8 8 8 10 10 11 11 11 11 12 11 11 15 17 15 14 15 15 16 17 16 17 20 22 22 21 19 20 20 21 21 20 20 21 22 22 24 24 24 23 23 23 22 22 24 24 22 22 21 19 19 20 20 22 24 24 23 23 24 27 28
17 12 10 8 7 7 7 5 5 6 6 5 5 7 5 4 8 15 17 15 16 14 12 11 11 10 10 9 8 8 7 6 6 5 6 7 7 7 9 11 11 11 11 11 12 13 13 13 15 16 15 14 15 18 18 18 19 19 19 21 22 21 20 21 21 21 20 20 21 21 22 22 23 23 23 23 24 25 26 25 24 25 25 25 24 22 21 21 20 20 21 21 21 22 23 25 27
14 12 11 10 7 7 8 7 7 7 6 5 5 4 3 2 2 12 16 15 15 15 13 11 11 11 10 10 9 7 6 6 6 6 6 5 6 9 10 11 12 12 12 12 13 14 14 14 14 15 16 16 16 18 18 17 19 19 19 20 20 21 21 22 22 21 21 21 21 21 21 21 22 23 23 23 23 24 26 27 26 27 25 24 24 26 24 21 20 19 19 20 22 24 24 24 25
13 11 11 11 10 8 8 8 9 9 7 6 4 4 4 2 4 3 12 15 14 14 14 12 11 11 11 10 9 8 7 6 6 6 5 4 7 10 10 11 13 12 12 13 13 13 13 14 14 15 16 16 16 17 17 18 18 18 19 20 20 20 21 22 23 22 22 23 22 22 22 22 22 22 22 23 23 24 25 26 27 27 26 23 23 25 24 21 20 20 20 22 23 23 23 23 24
Wind_Direction
292 310 304 287 277 279 272 247 255 237 234 255 261 269 269 262 261 273 258 165 270 97 76 79 60 353 331 4 78 69 47 50 37 52 94 125 128 120 107 106 112 111 116 126 128 130 139 150 155 156 157 156 157 155 150 149 150 151 149 147 144 133 128 129 122 117 117 119 115 107 107 110 109 106 104 108 107 101 100 101 101 100 99 100 103 104 104 104 102 101 100 97 97 97 98 100 100
276 292 284 268 263 267 268 228 248 261 251 258 263 261 263 261 248 260 273 295 67 88 53 62 74 85 94 287 94 77 60 65 72 83 103 118 116 112 108 108 113 112 117 123 127 131 137 149 153 153 155 156 156 152 150 150 152 152 151 149 143 135 132 131 126 122 120 119 114 107 109 112 110 109 109 108 107 104 104 104 104 103 101 101 103 106 104 103 102 101 100 99 98 98 100 100 101
263 272 265 253 248 245 269 257 245 260 260 261 267 260 260 268 247 233 283 64 74 77 62 68 99 146 172 206 95 76 83 82 85 95 118 125 115 110 107 107 114 113 119 126 130 131 137 149 149 151 154 154 153 151 151 151 153 153 152 149 142 135 132 131 129 124 120 121 117 112 112 113 114 113 110 107 108 107 107 106 105 105 103 102 103 105 104 104 103 102 101 101 100 100 100 100 102
251 258 263 259 248 231 245 253 244 250 257 262 267 272 278 306 9 63 61 55 59 71 115 138 143 76 6 64 92 81 89 83 88 94 110 121 119 118 112 113 118 115 124 134 134 130 138 149 147 150 152 152 151 150 152 152 153 154 152 148 140 135 134 131 132 126 122 126 120 117 119 119 121 114 108 108 109 110 110 108 108 107 105 103 102 101 102 105 104 103 103 103 103 103 104 103 103
249 258 259 254 259 249 242 243 242 241 244 256 257 271 285 32 52 69 70 27 38 92 184 163 143 125 53 48 70 81 86 82 90 94 93 105 118 126 121 121 122 123 132 138 139 137 141 149 148 148 150 150 151 151 152 153 153 154 152 148 141 138 138 133 134 130 129 132 123 122 126 126 123 113 109 110 111 114 113 111 108 106 104 104 103 102 101 104 105 105 105 105 108 109 108 106 103
249 256 245 238 270 296 268 246 240 242 240 250 259 271 279 95 84 79 92 113 120 193 185 192 185 122 95 63 63 70 79 91 100 104 106 110 123 131 130 127 126 130 131 134 140 139 143 152 150 147 148 146 149 149 149 150 149 150 151 148 142 140 139 135 135 131 133 135 127 127 132 133 126 114 113 113 114 117 116 113 110 109 109 107 103 101 101 104 108 109 109 112 115 113 109 105 104
247 253 227 221 256 268 256 249 247 253 246 245 244 255 263 95 87 80 224 159 146 182 186 210 164 111 101 90 76 63 65 76 92 104 113 120 128 133 135 131 128 130 130 133 133 133 146 154 150 151 149 146 150 148 146 146 144 145 149 146 141 139 138 136 134 132 135 136 132 133 136 139 131 121 119 119 117 116 116 113 111 115 119 117 110 109 115 117 116 115 115 116 114 109 106 103 105
246 255 234 228 234 227 235 247 249 252 256 257 251 257 336 81 84 232 233 201 171 178 182 205 172 130 101 96 85 74 74 81 96 104 115 126 133 136 138 134 130 130 128 131 133 136 148 153 150 153 151 150 152 151 147 145 143 144 147 145 141 140 140 138 135 133 137 140 138 137 140 141 136 127 125 126 120 116 117 115 112 111 118 121 115 116 127 130 125 122 117 115 111 107 105 104 105
238 241 242 244 242 241 237 243 247 245 251 259 260 265 109 114 241 288 288 244 169 176 174 185 205 156 103 99 97 93 88 95 105 109 119 129 135 138 138 137 135 133 126 129 139 140 145 153 152 150 152 152 151 151 148 145 144 145 145 143 140 139 138 135 134 134 137 144 142 140 145 142 138 135 135 137 130 124 122 122 119 108 109 113 108 109 120 126 126 123 119 115 111 107 105 104 102
227 227 238 245 243 253 246 244 246 245 245 243 239 237 167 177 238 250 262 237 172 189 175 180 207 150 106 101 100 103 102 107 111 114 125 131 134 138 140 141 138 132 126 129 137 138 142 153 153 152 154 153 151 148 146 145 143 145 145 141 139 137 134 133 135 135 137 146 147 149 152 146 142 144 146 147 141 136 133 133 127 113 116 118 112 114 116 120 123 121 119 113 107 104 103 101 101
229 216 234 253 246 247 249 250 245 243 237 235 216 105 109 218 244 227 241 233 183 203 174 174 190 121 102 100 99 109 110 114 116 119 129 131 135 141 140 140 136 129 127 131 136 141 144 150 154 157 155 150 150 147 146 146 144 146 145 142 140 136 134 135 139 140 142 150 157 160 159 154 149 150 153 154 152 148 144 147 139 123 130 129 121 123 121 123 125 122 116 109 103 99 101 98 106
242 221 215 240 247 247 252 253 253 252 223 203 207 175 176 183 230 218 232 229 180 192 154 179 180 118 112 112 109 118 118 118 118 124 133 135 139 141 137 137 136 130 130 134 137 143 145 148 151 153 153 151 150 149 151 149 148 148 144 142 140 138 137 137 139 144 147 155 166 169 165 162 159 156 157 159 160 158 155 158 153 137 141 137 125 125 128 131 128 122 113 105 99 94 97 96 113
243 237 225 230 246 256 259 257 262 278 236 160 192 147 118 174 219 215 230 217 182 194 153 198 186 114 115 113 120 126 119 118 122 131 137 138 140 137 136 136 137 134 133 135 138 144 146 146 145 148 151 152 153 155 156 152 151 147 143 142 141 141 141 140 141 144 149 156 166 175 174 171 171 167 165 168 170 171 172 173 169 156 152 142 127 126 128 134 134 122 108 97 90 87 90 97 122
239 245 250 248 251 255 260 264 265 274 257 183 136 112 119 213 225 213 221 199 196 211 156 160 97 109 114 114 130 130 120 125 129 136 136 138 139 136 137 134 135 132 129 133 140 144 144 143 143 146 146 146 150 152 152 150 150 145 143 144 144 145 144 146 146 146 149 151 157 169 177 179 181 183 182 181 183 188 189 185 174 163 159 148 132 128 127 137 138 123 104 90 81 81 89 100 126
237 246 255 262 264 257 253 259 268 266 250 134 125 130 172 211 252 228 215 202 185 153 136 113 75 108 135 139 145 134 130 132 130 135 135 137 138 134 137 132 126 121 124 137 144 141 139 140 140 139 136 138 137 136 140 144 148 147 147 145 146 148 150 154 151 153 155 153 155 159 173 180 185 194 198 197 198 203 203 197 178 166 166 158 144 134 130 137 138 125 103 84 75 80 91 105 124
237 256 255 258 259 256 252 246 254 266 247 105 138 166 192 169 222 241 216 199 112 99 141 95 63 76 110 127 128 125 130 131 130 135 134 135 136 132 136 123 111 114 135 146 143 136 138 137 134 132 133 136 129 125 131 139 146 150 152 148 147 153 157 160 161 166 166 163 161 162 172 173 178 184 192 206 204 205 204 204 188 172 173 169 161 149 136 140 143 131 102 82 79 81 96 112 122
233 250 256 250 247 248 253 235 225 244 104 100 159 170 193 164 196 242 103 110 126 138 148 89 81 81 83 96 109 117 125 128 130 136 138 138 137 135 133 112 102 117 148 150 134 128 134 128 124 129 135 135 130 129 126 132 143 147 153 151 148 155 165 170 173 178 178 174 171 173 176 169 170 149 151 197 200 199 202 209 203 185 181 179 174 162 151 150 151 138 109 89 83 86 107 118 120
233 226 242 243 237 241 249 241 204 100 107 93 138 171 205 165 180 219 128 174 154 151 122 91 94 92 92 100 108 117 123 128 134 143 148 149 145 147 135 110 111 134 145 141 126 124 123 122 129 132 136 138 132 128 118 121 131 136 146 147 146 155 168 181 185 188 187 182 183 183 182 178 173 136 149 189 198 200 204 209 211 199 189 186 183 173 168 165 159 150 121 99 95 98 113 119 115
234 223 233 239 241 246 249 14 30 48 96 82 92 208 235 157 172 168 188 193 148 161 148 114 104 100 104 109 114 121 125 133 143 153 156 156 150 151 132 113 127 142 130 122 124 124 122 134 143 139 139 140 132 122 113 119 128 141 148 145 153 161 168 182 185 187 191 187 191 193 195 196 181 161 177 202 216 216 205 204 208 205 198 191 186 183 186 180 167 159 136 114 114 110 117 119 111
227 227 237 232 245 262 248 70 41 40 54 72 124 212 194 134 162 162 196 191 157 176 160 138 124 118 119 118 120 122 127 140 145 153 158 153 145 143 125 119 135 133 117 115 117 123 138 150 149 145 146 143 139 129 122 137 157 159 154 155 167 174 177 180 177 185 194 192 197 204 208 206 187 170 181 190 208 233 222 205 208 205 203 195 187 194 205 200 179 168 155 144 147 140 138 139 125
218 221 240 234 258 301 337 97 73 54 23 28 96 200 194 130 123 173 197 191 184 188 166 154 133 125 123 122 123 122 132 144 144 148 148 140 133 127 113 117 124 111 108 116 121 134 152 157 150 147 149 146 147 146 145 161 176 167 160 168 175 180 186 183 182 193 194 189 196 208 209 205 194 176 179 180 193 224 233 216 208 202 205 198 191 197 216 219 193 178 171 170 173 172 177 193 203
225 226 241 250 289 314 307 165 185 106 334 319 119 207 183 145 166 219 216 189 200 197 162 142 125 126 126 123 123 126 138 141 138 136 131 125 124 117 98 99 102 101 115 132 141 151 151 150 149 151 153 150 153 158 162 169 176 171 169 177 181 184 190 187 192 205 201 191 195 208 210 202 195 186 185 184 188 195 203 221 206 195 200 200 199 194 219 234 207 191 186 184 188 217 234 216 201
232 236 238 254 277 290 291 189 151 102 250 250 220 343 89 162 203 235 231 109 76 62 94 116 119 125 121 121 121 126 135 128 124 120 121 112 104 99 91 93 97 108 136 143 141 142 138 141 150 161 162 158 161 167 170 173 178 180 179 183 186 189 193 193 197 208 209 200 196 203 209 206 202 199 194 191 193 188 190 211 205 192 193 198 204 193 212 232 217 207 205 205 213 245 248 214 196
230 246 245 247 242 258 292 142 120 163 244 247 230 19 180 212 208 210 208 112 103 87 94 109 113 114 111 114 110 113 120 110 109 112 108 94 80 77 89 100 110 126 143 133 125 132 139 147 154 163 165 163 166 171 176 182 185 184 185 188 191 192 194 197 200 209 215 212 207 205 207 208 208 207 204 199 199 194 191 197 195 195 193 194 203 198 210 222 219 218 217 221 228 246 236 203 205
226 247 258 253 224 227 244 197 123 202 227 239 213 202 206 224 209 195 182 117 129 114 113 118 114 113 107 104 97 92 109 109 115 113 94 84 80 79 94 109 119 129 135 124 126 137 143 150 155 162 168 169 166 170 181 189 191 189 191 194 193 195 197 199 199 206 216 222 221 214 209 208 207 207 208 206 203 199 194 191 186 188 190 195 205 211 221 219 219 222 219 224 226 238 230 207 210
216 231 249 257 238 228 228 211 214 214 211 208 211 211 205 205 204 193 158 131 154 134 130 128 119 112 101 98 95 83 102 117 117 107 95 91 85 83 96 110 119 124 132 136 140 148 153 153 156 163 169 175 174 177 186 191 197 197 197 199 194 192 198 198 198 203 211 223 228 222 216 212 211 210 210 210 205 200 197 195 187 183 183 189 201 220 238 227 221 226 223 225 228 232 226 216 210
218 225 236 244 243 232 231 220 218 222 217 210 209 214 195 171 203 191 138 133 161 161 144 133 124 112 105 102 101 92 97 109 104 100 100 102 95 92 100 108 120 127 137 144 144 152 159 155 159 168 170 178 182 184 188 189 197 201 201 205 199 193 197 198 200 204 205 215 222 220 216 212 212 212 209 210 208 204 201 201 196 189 187 189 193 206 235 235 225 231 232 231 234 235 228 219 213
237 238 238 237 236 230 222 217 217 217 215 207 207 214 181 159 223 211 147 144 170 184 134 122 120 109 111 112 111 117 104 87 89 100 105 105 106 109 110 112 124 135 142 143 144 152 157 155 160 171 175 179 179 179 186 188 191 198 202 205 202 196 200 206 210 211 211 216 219 218 215 210 208 205 202 205 209 208 203 202 201 198 198 201 197 193 211 235 233 235 238 238 239 243 235 219 215
234 233 244 235 229 233 219 207 215 211 203 197 210 219 173 171 226 216 143 151 179 179 122 115 117 110 117 118 114 115 103 91 84 100 107 108 117 120 114 115 127 137 140 137 138 147 153 157 161 171 180 180 178 178 184 188 188 192 198 200 202 201 205 217 226 226 226 227 219 217 218 213 211 206 202 200 203 206 203 203 204 203 204 206 205 193 194 221 236 236 237 241 246 248 237 218 221
234 228 244 240 222 226 217 207 215 210 192 184 212 222 165 190 211 151 118 153 184 175 130 121 119 117 122 118 115 111 105 109 103 108 116 121 130 131 119 118 124 127 135 137 139 146 151 161 167 174 184 182 182 182 179 185 187 185 194 201 205 210 213 220 228 232 234 225 209 205 206 205 209 210 202 196 198 206 206 208 211 211 208 205 208 204 198 205 219 234 238 240 247 251 239 221 231
230 229 226 237 232 215 204 205 212 210 193 186 211 224 168 196 187 143 141 167 185 177 133 127 122 120 120 113 115 113 109 111 106 105 112 124 132 128 122 122 122 116 128 142 144 149 150 163 172 173 181 179 180 186 182 184 188 188 200 210 213 219 223 227 230 233 231 217 201 198 198 193 197 205 202 198 196 200 206 209 212 214 213 211 209 209 209 205 206 223 237 238 240 242 236 226 234
216 228 218 222 237 221 196 194 205 210 199 187 201 228 196 192 167 147 159 166 180 149 110 121 125 119 118 114 114 111 113 111 105 103 100 112 122 121 126 129 129 121 128 137 139 148 150 157 165 160 172 175 175 189 190 188 194 200 209 218 225 229 235 241 241 240 238 231 213 206 204 186 186 195 199 205 201 200 210 216 217 215 215 219 213 207 213 211 206 212 230 240 240 238 235 230 232
204 218 226 217 221 236 198 179 197 208 200 183 197 234 220 171 149 147 165 176 189 133 107 122 127 119 123 121 115 111 113 109 101 103 102 104 103 105 117 122 125 128 126 122 129 147 149 144 137 140 163 172 177 191 196 198 205 213 220 228 236 239 245 252 257 261 271 288 316 339 308 183 183 190 191 199 199 198 207 217 224 221 216 220 219 212 215 214 209 210 218 231 240 242 240 234 232
204 207 229 228 215 237 207 166 187 206 200 181 202 235 306 117 140 157 179 185 195 150 121 129 128 125 131 117 107 103 98 94 70 54 60 66 68 69 79 84 89 103 102 101 116 132 137 133 124 132 149 157 170 178 194 214 220 226 233 239 247 250 251 256 270 283 293 316 354 8 344 273 213 207 197 197 197 195 199 207 216 217 216 219 221 217 217 216 213 214 217 217 225 238 241 246 246
207 200 218 234 218 231 217 165 176 199 197 182 205 228 160 125 151 165 185 185 195 187 135 126 126 122 113 96 93 90 80 75 53 29 16 29 63 76 77 75 73 76 76 85 98 103 110 119 122 126 130 129 136 129 156 229 244 246 241 240 246 255 261 264 276 288 286 286 305 322 276 235 221 215 204 205 207 201 198 202 212 217 216 218 221 220 219 218 218 220 223 220 221 227 230 247 259
208 204 213 226 218 229 222 174 168 189 195 188 206 211 164 150 158 161 182 184 191 174 127 121 129 117 97 90 89 87 80 70 60 46 16 16 66 88 66 52 56 58 62 77 85 85 88 102 113 113 108 104 99 100 132 230 260 262 251 244 246 249 261 266 272 278 279 270 262 267 238 215 220 222 216 214 214 208 201 204 214 222 220 219 223 223 220 220 222 224 227 229 229 228 221 227 248
218 207 211 225 226 227 213 172 162 183 198 196 203 187 155 153 146 139 138 126 114 119 113 103 108 106 96 99 97 88 83 77 79 80 65 40 47 65 51 46 53 53 55 62 69 70 69 78 90 91 90 87 75 68 55 330 306 295 284 276 272 266 263 271 278 271 259 252 246 258 246 229 237 239 231 222 219 220 219 218 220 226 227 226 226 226 224 223 224 224 229 234 235 234 225 219 226
242 223 208 223 233 224 202 171 161 180 200 200 190 159 143 136 112 94 72 78 62 57 74 77 91 101 97 97 95 90 86 84 92 79 63 49 44 54 57 55 55 54 54 55 56 59 59 60 66 67 68 69 57 42 22 358 336 321 317 315 311 302 285 281 284 276 261 252 250 260 259 251 253 252 245 238 234 236 237 236 233 231 231 230 229 228 226 226 224 223 227 233 233 236 231 219 218
253 247 216 218 230 224 207 181 166 175 202 201 172 145 132 116 98 82 66 71 63 54 58 68 86 95 96 99 96 95 94 84 79 70 63 54 46 48 49 48 50 51 51 49 47 50 52 52 52 51 51 48 44 32 8 1 346 329 328 323 314 304 298 294 288 284 282 277 271 267 259 259 263 262 259 257 253 249 245 245 244 239 232 230 231 227 225 225 224 223 226 228 227 232 234 228 222
243 251 229 217 215 218 219 187 170 169 194 207 160 137 132 122 116 102 80 78 76 68 67 71 80 86 92 99 96 97 97 87 78 73 65 59 52 48 47 45 45 45 44 41 39 39 40 42 43 46 48 41 40 32 7 359 341 328 330 315 299 280 290 303 296 284 285 286 282 275 263 260 264 265 265 265 264 260 254 250 249 245 237 233 232 229 224 221 222 223 223 223 221 222 229 232 227
229 240 238 226 206 216 227 177 166 167 193 218 171 133 143 140 138 130 106 94 92 87 83 80 81 86 87 87 88 89 91 86 82 80 74 68 61 53 50 47 44 42 41 37 34 34 31 33 37 41 46 44 40 31 10 356 340 329 330 317 305 286 277 295 297 287 285 284 282 281 275 267 265 265 266 265 264 261 256 251 249 249 245 240 238 236 232 228 226 226 223 220 218 216 221 229 230
222 229 239 244 218 218 216 159 162 177 196 219 190 143 158 158 159 153 138 118 103 99 97 90 83 86 86 83 84 83 83 84 84 83 78 75 70 62 56 50 47 42 38 37 36 35 31 30 36 39 41 40 33 25 12 360 348 337 334 330 325 316 301 293 294 292 287 283 283 283 281 276 272 272 269 263 259 258 256 252 248 248 250 248 244 241 239 235 229 227 225 222 221 219 219 223 228
219 216 233 252 243 230 207 153 165 200 199 217 202 171 174 178 180 162 146 129 111 107 104 99 86 84 86 81 82 84 87 88 86 81 73 71 69 64 60 53 50 45 37 35 34 35 32 29 31 31 34 33 24 20 15 7 358 348 341 337 331 323 318 306 299 295 287 286 287 283 281 279 276 274 271 266 262 260 260 256 251 249 251 252 252 247 241 237 233 230 227 225 224 219 215 217 222
223 208 221 242 249 246 212 156 167 211 203 220 212 198 208 202 182 159 148 134 118 120 119 111 99 89 87 82 81 83 88 89 85 81 75 73 69 65 64 57 54 50 41 37 34 32 29 28 28 26 27 26 18 15 13 8 360 351 345 342 339 335 327 318 311 302 294 292 290 285 286 283 278 274 271 269 268 268 266 261 257 253 250 251 256 253 245 241 239 234 230 227 224 218 216 218 220
224 212 208 225 242 254 234 177 175 203 206 227 214 202 221 209 164 152 152 150 137 132 130 125 115 100 92 89 88 85 86 83 78 77 75 74 72 68 67 63 56 50 46 42 38 34 29 28 29 27 25 22 15 10 7 4 359 352 349 347 345 342 338 333 324 315 309 305 298 294 293 288 284 284 281 277 275 276 275 271 265 258 254 253 254 252 248 247 242 235 231 228 223 219 220 223 219
227 224 203 214 234 255 258 217 188 190 204 231 215 199 218 203 150 152 163 169 157 141 136 132 120 112 105 100 100 97 92 85 76 74 72 70 71 67 64 62 59 52 47 44 40 37 33 28 28 28 24 18 13 9 4 2 0 358 355 353 348 342 340 337 330 325 321 317 311 306 303 297 293 294 291 284 278 279 283 282 275 264 260 262 258 253 251 249 245 239 234 228 223 219 219 222 221
223 237 216 209 224 248 267 239 194 193 210 229 220 202 210 211 157 164 181 175 155 141 141 138 126 122 118 113 112 103 92 85 78 71 66 64 64 63 59 56 55 51 48 46 42 39 35 29 28 29 25 18 13 9 5 4 3 3 0 357 354 348 344 338 331 326 320 317 316 316 315 312 309 308 300 291 286 286 286 286 285 275 268 269 266 262 257 251 248 245 237 230 224 221 219 222 220
214 238 224 205 206 229 254 227 187 203 216 229 228 208 208 219 179 174 182 161 144 139 146 143 134 131 125 120 117 104 90 83 78 69 61 58 55 54 55 52 47 45 44 44 44 41 37 32 29 29 28 22 16 10 6 5 4 3 2 360 357 353 348 342 334 329 325 323 323 323 324 322 317 314 307 300 297 295 290 287 290 285 275 272 271 268 262 254 252 249 240 230 223 219 220 223 221
209 228 220 205 195 201 233 221 197 208 217 225 225 209 202 210 113 137 135 129 129 133 141 140 133 131 128 123 115 104 92 80 72 65 58 53 49 46 46 47 44 40 40 41 40 38 34 30 28 29 27 21 18 13 10 9 5 2 1 1 358 354 351 347 341 337 336 336 334 330 327 323 317 313 311 309 305 300 296 289 288 287 280 274 273 274 270 261 257 250 239 230 223 219 220 223 224
205 216 212 209 202 193 213 221 210 213 221 226 222 210 181 114 61 84 109 112 117 126 132 131 127 123 120 117 109 98 87 78 68 62 58 51 49 48 45 45 44 41 42 43 40 36 33 29 28 27 24 23 21 19 17 13 7 4 2 359 356 352 351 348 344 342 340 340 340 335 327 321 317 314 312 312 311 305 299 290 284 284 281 275 273 275 274 269 262 249 236 230 225 221 222 223 222
205 213 217 213 205 204 208 217 225 219 226 234 227 215 160 141 118 96 107 111 115 123 125 122 120 116 113 107 101 92 83 77 70 63 59 53 51 51 51 48 45 43 43 44 43 41 36 30 28 26 22 20 18 21 26 19 13 10 5 1 358 353 350 346 341 341 341 340 340 338 333 327 321 317 313 315 316 311 302 294 287 283 281 279 275 273 271 269 262 246 236 234 230 223 222 223 221
204 213 222 210 204 216 207 206 230 232 237 236 216 78 66 117 119 113 118 120 126 130 127 125 121 116 113 104 97 91 82 75 70 65 58 56 54 53 55 53 49 47 42 42 46 45 39 32 29 28 22 13 8 14 28 27 24 14 2 3 5 357 352 349 343 341 341 339 338 336 335 335 332 326 321 320 320 317 309 300 296 292 286 282 276 272 271 268 260 245 235 232 229 224 221 222 223
192 213 224 201 200 223 218 195 219 244 255 226 122 97 99 114 123 132 130 128 137 141 134 131 125 118 113 103 97 93 85 79 74 71 61 56 56 56 59 58 55 53 45 43 43 43 41 31 24 31 27 14 9 13 24 26 22 11 360 2 8 2 358 355 349 345 343 340 338 335 334 334 335 334 331 325 321 320 316 308 305 301 293 288 283 277 276 271 261 249 240 234 233 231 227 224 224
194 212 220 195 201 226 230 197 208 209 234 215 122 134 150 145 146 152 146 145 150 151 143 135 129 122 112 105 104 97 92 90 81 75 67 62 62 61 63 64 61 58 52 48 42 40 40 25 23 35 32 21 12 7 17 23 19 11 2 1 7 7 3 360 354 349 345 342 341 339 336 334 333 334 334 331 327 324 319 313 310 307 299 292 285 282 282 275 265 257 250 245 244 242 237 230 225
212 207 198 197 213 221 214 208 210 207 220 205 132 145 162 162 154 159 163 162 158 155 148 139 132 124 114 109 109 102 95 90 79 74 67 64 65 64 67 66 62 58 54 51 45 41 36 24 29 35 32 27 12 359 11 22 21 16 5 1 6 7 4 1 356 352 349 346 344 342 339 336 334 334 334 333 332 329 325 319 313 309 301 292 287 285 280 273 269 264 257 251 248 245 239 233 228
214 208 190 206 229 219 209 206 210 218 223 203 156 163 177 149 153 169 170 163 158 155 147 140 134 124 118 114 110 104 99 89 83 81 72 68 71 74 74 66 61 58 53 51 48 41 34 30 32 29 25 28 14 3 15 23 18 17 10 4 4 4 3 1 356 356 354 349 346 345 342 339 338 339 337 334 331 330 330 327 321 316 309 301 300 298 287 279 277 268 258 254 249 244 240 234 232
207 212 196 199 218 226 221 205 204 224 227 201 172 170 165 77 142 178 168 157 155 150 142 138 132 122 116 113 109 106 104 95 88 85 78 80 82 75 70 62 58 56 51 50 49 43 36 34 35 28 24 25 18 11 17 20 16 15 12 8 6 3 2 360 357 359 357 352 349 348 346 344 342 341 340 338 334 331 331 330 327 324 316 308 306 305 300 294 285 271 260 254 248 246 244 239 235
196 207 208 203 203 215 223 212 204 214 228 224 193 151 136 36 338 198 158 151 148 143 139 133 125 119 113 110 112 112 109 100 92 92 98 101 82 71 67 64 60 55 49 50 51 47 40 36 37 34 28 26 22 14 14 20 19 14 12 10 7 5 3 1 359 359 358 356 354 352 350 348 346 344 343 341 338 335 334 334 332 327 320 316 313 307 303 299 291 282 272 262 252 247 244 239 237